User: anonymous
Location: Plymouth
(43.7570°N, 71.6890°W)
Time: 06:08:50
(UTC-04:00)
Language:

COSMOS 2406 - Orbit

View from above orbital plane
View from above orbital plane
View from above satellite
View from above satellite

Ground track
Ground track

The orbit data is extracted from the following two-line orbital elements,

1 28352U 04021A   14232.26831042 -.00000155  00000-0 -59228-4 0  3677
2 28352 071.0044 118.8256 0016078 226.4579 264.9922 14.11360289525243
Epoch (UTC): 20 August 2014 06:26:22
Eccentricity: 0.0016078
inclination: 71.0044°
perigee height: 843 km
apogee height: 866 km
right ascension of ascending node: 118.8256°
argument of perigee: 226.4579°
revolutions per day: 14.11360289
mean anomaly at epoch: 264.9922°
orbit number at epoch: 52524

The dashed part of the orbit path shows where the satellite is in the earth's shadow,  

DLR